Location: B?ogocice
(50.2413°N, 20.2361°E)
Time: 13:37:20
(UTC+00:00)

MSX - Pass Details

Date: 15 June 2024
Orbit: 894 x 905 km, 99.0° (Epoch: 14 July)

Event Time Altitude Azimuth Distance (km) Brightness Sun altitude
Rises 01:19:35 0° 12° (NNE) 3,522 8.3 -8.4°
Reaches altitude 10° 01:22:02 10° 8° (N) 2,578 7.3 -8.1°
Maximum altitude 01:27:35 53° 293° (WNW) 1,098 4.2 -7.6°
Drops below altitude 10° 01:33:06 10° 219° (SW) 2,565 5.5 -7.0°
Enters shadow 01:33:28 - 218° (SW) 2,704 5.6 -7.0°
